Time,TemperatureF,DewpointF,PressureIn,WindDirection,WindDirectionDegrees,WindSpeedMPH,WindSpeedGustMPH,Humidity,HourlyPrecipIn,Conditions,Clouds,dailyrainin,SoftwareType,DateUTC
2013-07-05 00:14:00,68.9,68.6,29.92,South,180,0.0,-999.0,99,-99.99,,,0.00,Acu-Link.com,2013-07-05 04:14:00,
2013-07-05 00:29:00,68.9,68.6,29.92,NNW,337,1.1,-999.0,99,-99.99,,,0.00,Acu-Link.com,2013-07-05 04:29:00,
2013-07-05 00:44:00,69.1,68.8,29.92,East,90,0.0,-999.0,99,-99.99,,,0.00,Acu-Link.com,2013-07-05 04:44:00,
2013-07-05 00:59:00,69.1,68.8,29.93,NNW,337,0.0,-999.0,99,-99.99,,,0.00,Acu-Link.com,2013-07-05 04:59:00,
2013-07-05 01:15:00,69.1,68.8,29.92,East,90,0.0,-999.0,99,-99.99,,,0.00,Acu-Link.com,2013-07-05 05:15:00,
2013-07-05 01:30:00,68.9,68.6,29.93,ESE,112,0.0,-999.0,99,-99.99,,,0.00,Acu-Link.com,2013-07-05 05:30:00,
2013-07-05 01:45:00,68.9,68.6,29.93,SE,135,0.0,-999.0,99,-99.99,,,0.00,Acu-Link.com,2013-07-05 05:45:00,
2013-07-05 02:00:00,68.7,68.4,29.92,NNW,337,0.0,-999.0,99,-99.99,,,0.00,Acu-Link.com,2013-07-05 06:00:00,
2013-07-05 02:15:00,68.9,68.6,29.92,North,0,0.0,-999.0,99,-99.99,,,0.00,Acu-Link.com,2013-07-05 06:15:00,
2013-07-05 02:30:00,69.1,68.8,29.91,North,0,0.0,-999.0,99,-99.99,,,0.00,Acu-Link.com,2013-07-05 06:30:00,
2013-07-05 02:45:00,69.1,68.8,29.91,North,0,0.0,-999.0,99,-99.99,,,0.00,Acu-Link.com,2013-07-05 06:45:00,
2013-07-05 03:00:00,69.1,68.8,29.91,NNW,337,0.0,-999.0,99,-99.99,,,0.00,Acu-Link.com,2013-07-05 07:00:00,
2013-07-05 03:15:00,69.3,69.0,29.91,NNW,337,0.0,-999.0,99,-99.99,,,0.00,Acu-Link.com,2013-07-05 07:15:00,
2013-07-05 03:30:00,69.3,69.0,29.91,SE,135,0.0,-999.0,99,-99.99,,,0.00,Acu-Link.com,2013-07-05 07:30:00,
2013-07-05 03:46:00,69.4,69.1,29.91,NNW,337,2.7,-999.0,99,-99.99,,,0.00,Acu-Link.com,2013-07-05 07:46:00,
2013-07-05 04:01:00,69.4,69.1,29.91,SSE,157,2.2,-999.0,99,-99.99,,,0.00,Acu-Link.com,2013-07-05 08:01:00,
2013-07-05 04:17:00,69.4,69.1,29.91,SSE,157,1.7,-999.0,99,-99.99,,,0.00,Acu-Link.com,2013-07-05 08:17:00,
2013-07-05 04:33:00,69.4,69.1,29.91,SSE,157,0.0,-999.0,99,-99.99,,,0.00,Acu-Link.com,2013-07-05 08:33:00,
2013-07-05 04:48:00,69.6,69.3,29.91,ESE,112,0.0,-999.0,99,-99.99,,,0.00,Acu-Link.com,2013-07-05 08:48:00,
2013-07-05 05:03:00,69.6,69.3,29.92,SSE,157,0.0,-999.0,99,-99.99,,,0.00,Acu-Link.com,2013-07-05 09:03:00,
2013-07-05 05:18:00,69.4,69.1,29.92,SSE,157,0.0,-999.0,99,-99.99,,,0.01,Acu-Link.com,2013-07-05 09:18:00,
2013-07-05 05:33:00,69.4,69.1,29.92,ESE,112,0.0,-999.0,99,-99.99,,,0.03,Acu-Link.com,2013-07-05 09:33:00,
2013-07-05 05:48:00,69.4,69.1,29.92,ENE,67,0.0,-999.0,99,-99.99,,,0.03,Acu-Link.com,2013-07-05 09:48:00,
2013-07-05 06:03:00,69.4,69.1,29.93,NNW,337,0.0,-999.0,99,-99.99,,,0.03,Acu-Link.com,2013-07-05 10:03:00,
2013-07-05 06:19:00,69.4,69.1,29.93,East,90,0.0,-999.0,99,-99.99,,,0.03,Acu-Link.com,2013-07-05 10:19:00,
2013-07-05 06:34:00,69.4,69.1,29.93,ESE,112,0.0,-999.0,99,-99.99,,,0.03,Acu-Link.com,2013-07-05 10:34:00,
2013-07-05 06:49:00,69.4,69.1,29.94,ESE,112,0.0,-999.0,99,-99.99,,,0.03,Acu-Link.com,2013-07-05 10:49:00,
2013-07-05 07:04:00,69.4,69.1,29.94,East,90,0.0,-999.0,99,-99.99,,,0.03,Acu-Link.com,2013-07-05 11:04:00,
2013-07-05 07:19:00,69.6,69.3,29.94,NW,315,0.0,-999.0,99,-99.99,,,0.03,Acu-Link.com,2013-07-05 11:19:00,
2013-07-05 07:34:00,69.6,69.3,29.94,SW,225,0.0,-999.0,99,-99.99,,,0.03,Acu-Link.com,2013-07-05 11:34:00,
2013-07-05 08:04:00,70.3,70.0,29.95,NNW,337,2.2,-999.0,99,-99.99,,,0.03,Acu-Link.com,2013-07-05 12:04:00,
2013-07-05 08:19:00,70.5,70.2,29.97,NW,315,3.2,-999.0,99,-99.99,,,0.03,Acu-Link.com,2013-07-05 12:19:00,
2013-07-05 08:35:00,70.5,70.2,29.97,NW,315,3.7,-999.0,99,-99.99,,,0.03,Acu-Link.com,2013-07-05 12:35:00,
2013-07-05 09:05:00,70.9,70.6,29.97,NW,315,1.1,-999.0,99,-99.99,,,0.03,Acu-Link.com,2013-07-05 13:05:00,
2013-07-05 09:35:00,72.0,71.1,29.98,South,180,0.0,-999.0,97,-99.99,,,0.03,Acu-Link.com,2013-07-05 13:35:00,
2013-07-05 09:50:00,72.3,71.1,29.98,NNW,337,1.7,-999.0,96,-99.99,,,0.03,Acu-Link.com,2013-07-05 13:50:00,
2013-07-05 10:05:00,72.7,71.2,29.98,NW,315,0.0,-999.0,95,-99.99,,,0.03,Acu-Link.com,2013-07-05 14:05:00,
2013-07-05 10:20:00,73.0,71.8,29.97,SSW,202,0.0,-999.0,96,-99.99,,,0.03,Acu-Link.com,2013-07-05 14:20:00,
2013-07-05 10:35:00,72.9,71.1,29.98,North,0,3.2,-999.0,94,-99.99,,,0.03,Acu-Link.com,2013-07-05 14:35:00,
2013-07-05 10:51:00,73.0,71.5,29.98,NW,315,2.7,-999.0,95,-99.99,,,0.03,Acu-Link.com,2013-07-05 14:51:00,
2013-07-05 11:06:00,72.9,71.7,29.98,NW,315,0.0,-999.0,96,-99.99,,,0.03,Acu-Link.com,2013-07-05 15:06:00,
2013-07-05 11:21:00,73.2,71.0,29.98,SW,225,1.7,-999.0,93,-99.99,,,0.03,Acu-Link.com,2013-07-05 15:21:00,
2013-07-05 11:36:00,73.8,71.3,29.98,NNW,337,1.1,-999.0,92,-99.99,,,0.03,Acu-Link.com,2013-07-05 15:36:00,
2013-07-05 11:51:00,74.5,71.7,29.99,NNW,337,1.7,-999.0,91,-99.99,,,0.03,Acu-Link.com,2013-07-05 15:51:00,
2013-07-05 12:06:00,74.7,72.5,29.98,South,180,1.7,-999.0,93,-99.99,,,0.03,Acu-Link.com,2013-07-05 16:06:00,
2013-07-05 12:21:00,75.6,72.5,29.99,NNW,337,2.7,-999.0,90,-99.99,,,0.03,Acu-Link.com,2013-07-05 16:21:00,
2013-07-05 12:36:00,75.6,73.4,29.99,WNW,292,0.0,-999.0,93,-99.99,,,0.03,Acu-Link.com,2013-07-05 16:36:00,
2013-07-05 12:51:00,74.7,72.5,29.99,NW,315,1.1,-999.0,93,-99.99,,,0.03,Acu-Link.com,2013-07-05 16:51:00,
2013-07-05 13:06:00,74.1,72.3,29.99,NNW,337,0.0,-999.0,94,-99.99,,,0.03,Acu-Link.com,2013-07-05 17:06:00,
2013-07-05 13:22:00,73.6,72.7,29.99,WSW,247,2.2,-999.0,97,-99.99,,,0.04,Acu-Link.com,2013-07-05 17:22:00,
2013-07-05 13:37:00,74.1,72.9,29.98,WNW,292,4.7,-999.0,96,-99.99,,,0.05,Acu-Link.com,2013-07-05 17:37:00,
2013-07-05 13:52:00,74.5,73.0,29.98,SE,135,1.7,-999.0,95,-99.99,,,0.05,Acu-Link.com,2013-07-05 17:52:00,
2013-07-05 14:07:00,73.2,72.0,29.98,NE,45,2.2,-999.0,96,-99.99,,,0.05,Acu-Link.com,2013-07-05 18:07:00,
2013-07-05 14:22:00,72.9,72.0,29.99,SSE,157,1.7,-999.0,97,-99.99,,,0.19,Acu-Link.com,2013-07-05 18:22:00,
2013-07-05 14:37:00,73.6,73.0,29.98,SSE,157,1.7,-999.0,98,-99.99,,,0.19,Acu-Link.com,2013-07-05 18:37:00,
2013-07-05 14:52:00,73.9,73.0,29.97,NNW,337,1.7,-999.0,97,-99.99,,,0.19,Acu-Link.com,2013-07-05 18:52:00,
2013-07-05 15:07:00,73.9,73.0,29.97,ESE,112,0.0,-999.0,97,-99.99,,,0.19,Acu-Link.com,2013-07-05 19:07:00,
2013-07-05 15:22:00,74.5,73.6,29.97,SSE,157,0.0,-999.0,97,-99.99,,,0.20,Acu-Link.com,2013-07-05 19:22:00,
2013-07-05 15:38:00,74.3,73.1,29.96,WNW,292,1.7,-999.0,96,-99.99,,,0.21,Acu-Link.com,2013-07-05 19:38:00,
2013-07-05 15:53:00,74.3,73.4,29.96,SW,225,1.1,-999.0,97,-99.99,,,0.21,Acu-Link.com,2013-07-05 19:53:00,
2013-07-05 16:08:00,74.5,73.6,29.95,South,180,0.0,-999.0,97,-99.99,,,0.22,Acu-Link.com,2013-07-05 20:08:00,
2013-07-05 16:23:00,74.3,73.4,29.95,SW,225,0.0,-999.0,97,-99.99,,,0.23,Acu-Link.com,2013-07-05 20:23:00,
2013-07-05 16:38:00,73.9,73.0,29.95,ESE,112,0.0,-999.0,97,-99.99,,,0.23,Acu-Link.com,2013-07-05 20:38:00,
2013-07-05 16:53:00,74.1,73.5,29.94,NE,45,0.0,-999.0,98,-99.99,,,0.24,Acu-Link.com,2013-07-05 20:53:00,
2013-07-05 17:09:00,74.3,73.7,29.94,SSE,157,0.0,-999.0,98,-99.99,,,0.26,Acu-Link.com,2013-07-05 21:09:00,
2013-07-05 17:24:00,75.0,74.1,29.93,East,90,0.0,-999.0,97,-99.99,,,0.28,Acu-Link.com,2013-07-05 21:24:00,
2013-07-05 17:39:00,75.2,74.3,29.93,West,270,0.0,-999.0,97,-99.99,,,0.28,Acu-Link.com,2013-07-05 21:39:00,
2013-07-05 17:54:00,75.0,73.8,29.94,South,180,0.0,-999.0,96,-99.99,,,0.28,Acu-Link.com,2013-07-05 21:54:00,
2013-07-05 18:09:00,75.0,73.8,29.92,SSW,202,0.0,-999.0,96,-99.99,,,0.28,Acu-Link.com,2013-07-05 22:09:00,
2013-07-05 18:24:00,74.7,73.8,29.93,South,180,0.0,-999.0,97,-99.99,,,0.28,Acu-Link.com,2013-07-05 22:24:00,
2013-07-05 18:39:00,74.3,73.4,29.93,SSE,157,0.0,-999.0,97,-99.99,,,0.28,Acu-Link.com,2013-07-05 22:39:00,
2013-07-05 18:54:00,73.9,73.3,29.93,East,90,0.0,-999.0,98,-99.99,,,0.29,Acu-Link.com,2013-07-05 22:54:00,
2013-07-05 19:09:00,73.8,73.2,29.94,ESE,112,0.0,-999.0,98,-99.99,,,0.29,Acu-Link.com,2013-07-05 23:09:00,
2013-07-05 19:25:00,73.8,73.2,29.94,ESE,112,0.0,-999.0,98,-99.99,,,0.29,Acu-Link.com,2013-07-05 23:25:00,
2013-07-05 19:40:00,73.4,73.1,29.95,SE,135,0.0,-999.0,99,-99.99,,,0.29,Acu-Link.com,2013-07-05 23:40:00,
2013-07-05 19:55:00,73.2,72.9,29.95,ESE,112,0.0,-999.0,99,-99.99,,,0.29,Acu-Link.com,2013-07-05 23:55:00,
2013-07-05 20:10:00,73.2,72.9,29.95,SE,135,0.0,-999.0,99,-99.99,,,0.30,Acu-Link.com,2013-07-06 00:10:00,
2013-07-05 20:25:00,72.9,72.6,29.95,NE,45,0.0,-999.0,99,-99.99,,,0.31,Acu-Link.com,2013-07-06 00:25:00,
2013-07-05 20:40:00,72.7,72.4,29.96,NE,45,0.0,-999.0,99,-99.99,,,0.31,Acu-Link.com,2013-07-06 00:40:00,
2013-07-05 20:55:00,72.5,72.2,29.96,ESE,112,0.0,-999.0,99,-99.99,,,0.33,Acu-Link.com,2013-07-06 00:55:00,
2013-07-05 21:10:00,72.3,72.0,29.96,ESE,112,0.0,-999.0,99,-99.99,,,0.39,Acu-Link.com,2013-07-06 01:10:00,
2013-07-05 21:25:00,72.3,72.0,29.95,ESE,112,0.0,-999.0,99,-99.99,,,0.41,Acu-Link.com,2013-07-06 01:25:00,
2013-07-05 21:40:00,72.1,71.8,29.95,SSE,157,0.0,-999.0,99,-99.99,,,0.41,Acu-Link.com,2013-07-06 01:40:00,
2013-07-05 21:56:00,71.8,71.5,29.95,ESE,112,0.0,-999.0,99,-99.99,,,0.41,Acu-Link.com,2013-07-06 01:56:00,
2013-07-05 22:11:00,71.8,71.5,29.95,ESE,112,0.0,-999.0,99,-99.99,,,0.42,Acu-Link.com,2013-07-06 02:11:00,
2013-07-05 22:26:00,71.6,71.3,29.96,NNE,22,0.0,-999.0,99,-99.99,,,0.43,Acu-Link.com,2013-07-06 02:26:00,
2013-07-05 22:41:00,71.6,71.3,29.95,NNE,22,0.0,-999.0,99,-99.99,,,0.44,Acu-Link.com,2013-07-06 02:41:00,
2013-07-05 22:56:00,71.6,71.3,29.95,NNW,337,1.7,-999.0,99,-99.99,,,0.44,Acu-Link.com,2013-07-06 02:56:00,
2013-07-05 23:11:00,71.2,70.9,29.95,NNE,22,0.0,-999.0,99,-99.99,,,0.44,Acu-Link.com,2013-07-06 03:11:00,
2013-07-05 23:26:00,71.1,70.8,29.95,ESE,112,0.0,-999.0,99,-99.99,,,0.45,Acu-Link.com,2013-07-06 03:26:00,
2013-07-05 23:41:00,70.7,70.4,29.96,ESE,112,0.0,-999.0,99,-99.99,,,0.45,Acu-Link.com,2013-07-06 03:41:00,
2013-07-05 23:56:00,70.3,70.0,29.95,NNW,337,0.0,-999.0,99,-99.99,,,0.45,Acu-Link.com,2013-07-06 03:56:00,